Time,TemperatureF,DewpointF,PressureIn,WindDirection,WindDirectionDegrees,WindSpeedMPH,WindSpeedGustMPH,Humidity,HourlyPrecipIn,Conditions,Clouds,dailyrainin,SoftwareType,DateUTC
2013-10-20 00:00:00,42.0,20.0,-100.00,WSW,240,3.0,7.0,41,0.00,,,0.00,,2013-10-20 06:00:00,
2013-10-20 00:42:00,42.0,20.0,-100.00,WSW,240,3.0,7.0,41,0.00,,,0.00,,2013-10-20 06:42:00,
2013-10-20 00:52:00,42.0,20.0,-100.00,WSW,240,3.0,7.0,41,0.00,,,0.00,,2013-10-20 06:52:00,
2013-10-20 01:00:00,45.0,18.0,-100.00,WSW,244,11.0,14.0,34,0.00,,,0.00,,2013-10-20 07:00:00,
2013-10-20 01:42:00,45.0,18.0,-100.00,WSW,244,11.0,14.0,34,0.00,,,0.00,,2013-10-20 07:42:00,
2013-10-20 01:52:00,45.0,18.0,-100.00,WSW,244,11.0,14.0,34,0.00,,,0.00,,2013-10-20 07:52:00,
2013-10-20 02:00:00,43.0,19.0,-100.00,West,260,3.0,4.0,39,0.00,,,0.00,,2013-10-20 08:00:00,
2013-10-20 02:42:00,43.0,19.0,-100.00,West,260,3.0,4.0,39,0.00,,,0.00,,2013-10-20 08:42:00,
2013-10-20 02:52:00,43.0,19.0,-100.00,West,260,3.0,4.0,39,0.00,,,0.00,,2013-10-20 08:52:00,
2013-10-20 03:00:00,39.0,24.0,-100.00,WSW,238,6.0,7.0,54,0.00,,,0.00,,2013-10-20 09:00:00,
2013-10-20 03:43:00,39.0,24.0,-100.00,WSW,238,6.0,7.0,54,0.00,,,0.00,,2013-10-20 09:43:00,
2013-10-20 03:53:00,39.0,24.0,-100.00,WSW,238,6.0,7.0,54,0.00,,,0.00,,2013-10-20 09:53:00,
2013-10-20 04:00:00,39.0,25.0,-100.00,East,83,10.0,12.0,56,0.00,,,0.00,,2013-10-20 10:00:00,
2013-10-20 04:43:00,39.0,25.0,-100.00,East,83,10.0,12.0,56,0.00,,,0.00,,2013-10-20 10:43:00,
2013-10-20 04:53:00,39.0,25.0,-100.00,East,83,10.0,12.0,56,0.00,,,0.00,,2013-10-20 10:53:00,
2013-10-20 05:00:00,36.0,28.0,-100.00,East,90,3.0,5.0,71,0.00,,,0.00,,2013-10-20 11:00:00,
2013-10-20 05:42:00,36.0,28.0,-100.00,East,90,3.0,5.0,71,0.00,,,0.00,,2013-10-20 11:42:00,
2013-10-20 05:52:00,36.0,28.0,-100.00,East,90,3.0,5.0,71,0.00,,,0.00,,2013-10-20 11:52:00,
2013-10-20 06:00:00,35.0,29.0,-100.00,ENE,74,7.0,8.0,80,0.00,,,0.00,,2013-10-20 12:00:00,
2013-10-20 06:52:00,35.0,29.0,-100.00,ENE,74,7.0,8.0,80,0.00,,,0.00,,2013-10-20 12:52:00,
2013-10-20 07:00:00,33.0,32.0,-100.00,ENE,67,5.0,7.0,94,0.00,,,0.00,,2013-10-20 13:00:00,
2013-10-20 07:42:00,33.0,32.0,-100.00,ENE,67,5.0,7.0,94,0.00,,,0.00,,2013-10-20 13:42:00,
2013-10-20 07:52:00,33.0,32.0,-100.00,ENE,67,5.0,7.0,94,0.00,,,0.00,,2013-10-20 13:52:00,
2013-10-20 08:00:00,31.0,30.0,-100.00,ENE,76,5.0,6.0,98,0.00,,,0.00,,2013-10-20 14:00:00,
2013-10-20 08:42:00,31.0,30.0,-100.00,ENE,76,5.0,6.0,98,0.00,,,0.00,,2013-10-20 14:42:00,
2013-10-20 08:52:00,31.0,30.0,-100.00,ENE,76,5.0,6.0,98,0.00,,,0.00,,2013-10-20 14:52:00,
2013-10-20 09:00:00,31.0,30.0,-100.00,ENE,66,4.0,4.0,98,0.00,,,0.00,,2013-10-20 15:00:00,
2013-10-20 09:44:00,31.0,30.0,-100.00,ENE,66,4.0,4.0,98,0.00,,,0.00,,2013-10-20 15:44:00,
2013-10-20 09:54:00,31.0,30.0,-100.00,ENE,66,4.0,4.0,98,0.00,,,0.00,,2013-10-20 15:54:00,
2013-10-20 10:00:00,31.0,30.0,-100.00,NE,44,2.0,3.0,98,0.00,,,0.00,,2013-10-20 16:00:00,
2013-10-20 10:54:00,31.0,30.0,-100.00,NE,44,2.0,3.0,98,0.00,,,0.00,,2013-10-20 16:54:00,
2013-10-20 11:00:00,32.0,31.0,-100.00,ENE,74,2.0,3.0,98,0.00,,,0.00,,2013-10-20 17:00:00,
2013-10-20 11:42:00,32.0,31.0,-100.00,ENE,74,2.0,3.0,98,0.00,,,0.00,,2013-10-20 17:42:00,
2013-10-20 11:52:00,32.0,31.0,-100.00,ENE,74,2.0,3.0,98,0.00,,,0.00,,2013-10-20 17:52:00,
2013-10-20 12:00:00,33.0,31.0,-100.00,ENE,70,4.0,6.0,93,0.01,,,0.01,,2013-10-20 18:00:00,
2013-10-20 12:52:00,33.0,31.0,-100.00,ENE,70,4.0,6.0,93,0.01,,,0.01,,2013-10-20 18:52:00,
2013-10-20 13:00:00,34.0,31.0,-100.00,ENE,69,8.0,10.0,88,0.00,,,0.01,,2013-10-20 19:00:00,
2013-10-20 13:42:00,34.0,31.0,-100.00,ENE,69,8.0,10.0,88,0.00,,,0.01,,2013-10-20 19:42:00,
2013-10-20 13:52:00,34.0,31.0,-100.00,ENE,69,8.0,10.0,88,0.00,,,0.01,,2013-10-20 19:52:00,
2013-10-20 14:00:00,35.0,29.0,-100.00,ENE,65,5.0,5.0,78,0.00,,,0.01,,2013-10-20 20:00:00,
2013-10-20 14:42:00,35.0,29.0,-100.00,ENE,65,5.0,5.0,78,0.00,,,0.01,,2013-10-20 20:42:00,
2013-10-20 14:52:00,35.0,29.0,-100.00,ENE,65,5.0,5.0,78,0.00,,,0.01,,2013-10-20 20:52:00,
2013-10-20 15:00:00,36.0,28.0,-100.00,ENE,63,5.0,6.0,72,0.00,,,0.01,,2013-10-20 21:00:00,
2013-10-20 15:54:00,36.0,28.0,-100.00,ENE,63,5.0,6.0,72,0.00,,,0.01,,2013-10-20 21:54:00,
2013-10-20 16:00:00,38.0,29.0,-100.00,NNE,20,1.0,2.0,71,0.00,,,0.01,,2013-10-20 22:00:00,
2013-10-20 16:43:00,38.0,29.0,-100.00,NNE,20,1.0,2.0,71,0.00,,,0.01,,2013-10-20 22:43:00,
2013-10-20 16:53:00,38.0,29.0,-100.00,NNE,20,1.0,2.0,71,0.00,,,0.01,,2013-10-20 22:53:00,
2013-10-20 17:00:00,37.0,28.0,-100.00,ENE,62,6.0,9.0,69,0.01,,,0.02,,2013-10-20 23:00:00,
2013-10-20 17:42:00,37.0,28.0,-100.00,ENE,62,6.0,9.0,69,0.01,,,0.02,,2013-10-20 23:42:00,
2013-10-20 17:52:00,37.0,28.0,-100.00,ENE,62,6.0,9.0,69,0.01,,,0.02,,2013-10-20 23:52:00,
2013-10-20 18:00:00,36.0,28.0,-100.00,NNE,20,0.0,1.0,73,0.00,,,0.02,,2013-10-21 00:00:00,
2013-10-20 18:43:00,36.0,28.0,-100.00,NNE,20,0.0,1.0,73,0.00,,,0.02,,2013-10-21 00:43:00,
2013-10-20 18:52:00,36.0,28.0,-100.00,NNE,20,0.0,1.0,73,0.00,,,0.02,,2013-10-21 00:52:00,
2013-10-20 19:00:00,32.0,30.0,-100.00,WSW,245,3.0,3.0,89,-99.99,,,0.01,,2013-10-21 01:00:00,
2013-10-20 19:52:00,32.0,30.0,-100.00,WSW,245,3.0,3.0,89,-99.99,,,0.01,,2013-10-21 01:52:00,
2013-10-20 20:00:00,32.0,28.0,-100.00,SW,230,4.0,4.0,87,0.00,,,0.01,,2013-10-21 02:00:00,
2013-10-20 20:52:00,32.0,28.0,-100.00,SW,230,4.0,4.0,87,0.00,,,0.01,,2013-10-21 02:52:00,
2013-10-20 21:00:00,35.0,27.0,-100.00,WSW,249,7.0,9.0,72,0.00,,,0.01,,2013-10-21 03:00:00,
2013-10-20 21:45:00,35.0,27.0,-100.00,WSW,249,7.0,9.0,72,0.00,,,0.01,,2013-10-21 03:45:00,
2013-10-20 21:54:00,35.0,27.0,-100.00,WSW,249,7.0,9.0,72,0.00,,,0.01,,2013-10-21 03:54:00,
2013-10-20 22:00:00,32.0,26.0,-100.00,NNW,338,0.0,1.0,78,0.00,,,0.01,,2013-10-21 04:00:00,
2013-10-20 22:44:00,32.0,26.0,-100.00,NNW,338,0.0,1.0,78,0.00,,,0.01,,2013-10-21 04:44:00,
2013-10-20 22:53:00,32.0,26.0,-100.00,NNW,338,0.0,1.0,78,0.00,,,0.01,,2013-10-21 04:53:00,
2013-10-20 23:00:00,30.0,23.0,-100.00,SSW,210,5.0,6.0,74,0.00,,,0.01,,2013-10-21 05:00:00,
2013-10-20 23:43:00,30.0,23.0,-100.00,SSW,210,5.0,6.0,74,0.00,,,0.01,,2013-10-21 05:43:00,
2013-10-20 23:52:00,30.0,23.0,-100.00,SSW,210,5.0,6.0,74,0.00,,,0.01,,2013-10-21 05:52:00,